KZ1X Weather Reports


time (UTC)temp
C
wind
direction
speed
KPH
gust
KPH
rain 1hr
cm
rain 24hr
cm
rain mn
cm
humidity
%
barometer
mb
20260906123052 22 0 0.0 8.0 0.00 0.03 0.00 97 1013.5
20260906121548 22 0 0.0 8.0 0.00 0.03 0.00 98 1013.5
20260906120051 22 0 0.0 6.4 0.00 0.03 0.00 99 1013.5
20260906114548 21 0 0.0 1.6 0.00 0.03 0.00 99 1013.7
20260906113050 21 0 0.0 1.6 0.00 0.03 0.00 99 1013.4
20260906111550 21 0 0.0 0.0 0.00 0.03 0.00 99 1013.0
20260906110047 21 0 0.0 6.4 0.00 0.03 0.00 99 1013.0
20260906104554 21 0 0.0 0.0 0.00 0.03 0.00 99 1012.9
20260906103050 21 0 0.0 1.6 0.00 0.03 0.00 99 1012.7
20260906101547 21 0 0.0 0.0 0.00 0.03 0.00 99 1012.4
20260906100047 21 0 0.0 0.0 0.00 0.03 0.00 99 1012.3
20260906094545 21 0 0.0 0.0 0.00 0.03 0.00 99 1012.2
20260906093051 21 0 0.0 1.6 0.00 0.03 0.00 99 1011.9
20260906091550 21 0 0.0 0.0 0.00 0.03 0.00 99 1011.7
20260906090051 21 0 0.0 0.0 0.00 0.03 0.00 99 1011.5
20260906084549 21 0 0.0 0.0 0.00 0.03 0.00 99 1011.4
20260906083049 21 0 0.0 0.0 0.00 0.03 0.00 99 1011.5
20260906081549 21 0 0.0 0.0 0.00 0.03 0.00 99 1011.5
20260906080048 21 0 0.0 0.0 0.00 0.03 0.00 99 1011.4
20260906074550 21 0 0.0 0.0 0.00 0.03 0.00 99 1011.2
20260906073049 21 0 0.0 0.0 0.00 0.03 0.00 99 1011.0
20260906071548 21 0 0.0 0.0 0.00 0.03 0.00 99 1010.8
20260906070045 21 0 0.0 0.0 0.00 0.03 0.00 99 1011.1
20260906064550 21 0 0.0 0.0 0.00 0.03 0.00 99 1011.3
20260906063049 21 0 0.0 0.0 0.00 0.03 0.00 98 1011.3
20260906061551 21 0 0.0 0.0 0.00 0.03 0.00 99 1011.1
20260906060059 21 0 0.0 0.0 0.00 0.03 0.00 98 1011.4
20260906054601 21 0 0.0 0.0 0.00 0.08 0.00 99 1011.5
20260906053048 21 0 0.0 0.0 0.00 0.08 0.00 98 1011.6
20260906051548 22 0 0.0 0.0 0.00 0.08 0.00 98 1011.9
20260906050046 22 0 0.0 0.0 0.00 0.08 0.00 98 1012.0
20260906044550 22 0 0.0 0.0 0.00 0.08 0.00 98 1011.9
20260906043050 22 0 0.0 0.0 0.00 0.08 0.00 98 1012.2
20260906041547 22 0 0.0 0.0 0.00 0.08 0.00 98 1012.2
20260906040044 22 0 0.0 0.0 0.00 0.08 0.00 98 1012.1
20260906034600 22 0 0.0 1.6 0.00 0.08 0.08 98 1012.2
20260906033047 22 0 0.0 0.0 0.00 0.08 0.08 98 1012.3
20260906031544 22 0 0.0 0.0 0.00 0.08 0.08 98 1012.1
20260906030054 22 0 0.0 0.0 0.00 0.08 0.08 98 1012.3
20260906024554 22 0 0.0 0.0 0.00 0.08 0.08 98 1012.1
20260906023048 22 0 0.0 0.0 0.00 0.08 0.08 98 1012.0
20260906021547 22 0 0.0 0.0 0.00 0.08 0.08 98 1011.8
20260906020056 23 0 0.0 0.0 0.00 0.08 0.08 98 1011.5
20260906014551 23 0 0.0 0.0 0.00 0.08 0.08 97 1011.7
20260906013049 23 0 0.0 0.0 0.00 0.08 0.08 97 1012.0
20260906011547 23 0 0.0 0.0 0.00 0.08 0.08 97 1011.8
20260906010111 23 0 0.0 0.0 0.00 0.08 0.08 96 1011.7
20260906004556 23 0 0.0 0.0 0.00 0.08 0.08 96 1011.5
20260906003047 23 0 0.0 0.0 0.00 0.08 0.08 95 1011.4
20260906001600 23 0 0.0 0.0 0.00 0.08 0.08 94 1011.1
20260906000048 23 0 0.0 0.0 0.00 0.08 0.08 93 1011.0
20260905234542 23 0 0.0 0.0 0.00 0.08 0.08 92 1010.8
20260905233048 24 0 0.0 0.0 0.00 0.08 0.08 92 1010.8
20260905231549 25 0 0.0 0.0 0.00 0.08 0.08 91 1010.5
20260905230048 25 101 0.0 1.6 0.00 0.08 0.08 90 1010.2
20260905224549 25 0 0.0 0.0 0.00 0.08 0.08 88 1010.0
20260905223055 25 0 0.0 1.6 0.00 0.08 0.08 89 1009.9
20260905221548 25 96 0.0 0.0 0.00 0.08 0.08 93 1010.2
20260905220047 24 0 0.0 1.6 0.00 0.08 0.08 94 1010.4
20260905214551 23 0 0.0 1.6 0.00 0.08 0.08 96 1010.4
20260905213049 23 0 0.0 0.0 0.00 0.08 0.08 96 1010.1
20260905211546 23 0 0.0 1.6 0.00 0.08 0.08 95 1009.9
20260905210107 23 0 0.0 0.0 0.00 0.08 0.08 96 1010.0
20260905204547 23 0 0.0 0.0 0.00 0.08 0.08 95 1010.1
20260905203052 23 0 0.0 0.0 0.00 0.08 0.08 94 1009.9
20260905201549 23 0 0.0 0.0 0.00 0.08 0.08 93 1009.8
20260905200111 24 0 0.0 1.6 0.00 0.08 0.08 92 1010.4
20260905194544 26 0 0.0 1.6 0.00 0.08 0.05 87 1011.2
20260905193048 29 250 3.2 9.7 0.00 0.08 0.05 72 1011.0
20260905191549 31 0 0.0 0.0 0.00 0.08 0.05 70 1009.8
20260905190044 32 0 0.0 1.6 0.00 0.08 0.05 66 1009.9
20260905184551 33 0 0.0 4.8 0.00 0.08 0.05 64 1009.6
20260905183049 34 111 0.0 3.2 0.00 0.08 0.05 63 1010.0
20260905181547 35 151 1.6 8.0 0.00 0.08 0.05 60 1009.9
20260905180048 34 240 0.0 11.3 0.00 0.08 0.05 62 1010.5
20260905174550 34 87 0.0 9.7 0.00 0.08 0.05 62 1010.8
20260905173052 34 89 0.0 8.0 0.00 0.08 0.05 62 1011.3
20260905171547 33 0 0.0 9.7 0.00 0.08 0.05 65 1011.6
20260905170043 33 197 3.2 11.3 0.00 0.08 0.05 64 1011.7
20260905164549 33 152 0.0 3.2 0.00 0.08 0.05 66 1012.1
20260905163048 33 231 0.0 4.8 0.00 0.08 0.05 69 1012.2
20260905161548 32 122 0.0 4.8 0.00 0.08 0.05 69 1012.2
20260905160044 32 146 1.6 4.8 0.00 0.08 0.05 73 1012.4
20260905154559 31 151 0.0 3.2 0.00 0.08 0.05 78 1012.6
20260905153048 31 0 0.0 4.8 0.00 0.08 0.05 75 1012.9
20260905151558 30 91 0.0 3.2 0.00 0.08 0.05 75 1013.1
20260905150051 29 0 0.0 3.2 0.00 0.08 0.05 81 1013.0
20260905144547 28 244 0.0 3.2 0.00 0.08 0.05 86 1013.0
20260905143050 27 120 0.0 1.6 0.00 0.08 0.05 88 1013.1
20260905141546 26 105 0.0 1.6 0.00 0.08 0.05 92 1013.0
20260905140048 25 0 0.0 1.6 0.00 0.08 0.05 95 1012.6
20260905134545 24 0 0.0 0.0 0.00 0.08 0.05 97 1012.8
20260905133049 23 0 0.0 4.8 0.00 0.08 0.05 99 1012.9
20260905131558 23 0 0.0 1.6 0.00 0.08 0.05 99 1012.9
20260905130048 23 0 0.0 0.0 0.00 0.08 0.05 99 1012.9
20260905124544 22 0 0.0 1.6 0.00 0.08 0.05 99 1012.9